Weather History for PAAK - December, 2013

Change the Weather History Date:

Wednesday, December 18, 2013

  Actual Average (PADK) Record (PADK)
Temperature  
Mean Temperature 42 °F -  
Max Temperature 44 °F 38 °F 47 °F (1964)
Min Temperature 41 °F 31 °F 19 °F (1993)
Degree Days  
Heating Degree Days 22    
Moisture  
Dew Point 39 °F    
Average Humidity 82    
Maximum Humidity 93    
Minimum Humidity 71    
Precipitation  
Precipitation 0.00 in - - ()
Sea Level Pressure  
Sea Level Pressure 28.83 in    
Wind  
Wind Speed 17 mph (SE)    
Max Wind Speed 36 mph    
Max Gust Speed 60 mph    
Visibility 5 miles    
Events      
Averages and records for this station are not official NWS values.
T = Trace of Precipitation, MM = Missing Value Source: NWS Daily Summary

Daily Weather History Graph

Daily Weather History Graph

Search for Another Location

Airport or City:

Trip Planner

Search our weather history database for the weather conditions in past years. The results will help you decide how hot, cold, wet, or windy it might be!

Date:

Astronomy

Dec. 18, 2013 Rise Set
Actual Time 9:42 AM HST 5:25 PM HST
Civil Twilight 9:01 AM HST 6:06 PM HST
Nautical Twilight 8:17 AM HST 6:50 PM HST
Astronomical Twilight 7:35 AM HST 7:31 PM HST
Moon 7:22 PM HST (12/18) 10:20 AM HST (12/18)
Length of Visible Light 9h 05m
Length of Day
7h 42m
Full, 98% of the Moon is Illuminated
Dec 18
Full
Dec 25
Last Quarter
Jan 1
New
Jan 7
First Quarter
Jan 15
Full

Hourly Weather History & Observations

Time (HST) Temp. Windchill Dew Point Humidity Pressure Visibility Wind Dir Wind Speed Gust Speed Precip Events Conditions
12:16 AM 42.8 °F 31.4 °F 35.6 °F 76% 28.87 in 5.0 mi ENE 35.7 mph 59.8 mph N/A   Overcast
12:36 AM 44.6 °F 35.1 °F 35.6 °F 71% 28.87 in 5.0 mi ENE 27.6 mph 49.5 mph N/A   Overcast
12:56 AM 42.8 °F 32.7 °F 35.6 °F 76% 28.85 in 3.0 mi East 27.6 mph 43.7 mph N/A   Overcast
1:16 AM 42.8 °F 32.7 °F 37.4 °F 81% 28.83 in 4.0 mi ENE 27.6 mph 44.9 mph N/A   Overcast
1:36 AM 44.6 °F 36.1 °F 37.4 °F 76% 28.81 in 5.0 mi ENE 21.9 mph 36.8 mph N/A   Overcast
1:56 AM 44.6 °F 35.5 °F 37.4 °F 76% 28.80 in 6.0 mi ENE 25.3 mph 34.5 mph N/A   Overcast
2:16 AM 44.6 °F 36.9 °F 37.4 °F 76% 28.77 in 10.0 mi ENE 18.4 mph 24.2 mph N/A   Overcast
2:36 AM 44.6 °F 35.3 °F 37.4 °F 76% 28.76 in 10.0 mi East 26.5 mph 32.2 mph N/A   Overcast
2:56 AM 44.6 °F 36.6 °F 37.4 °F 76% 28.76 in 10.0 mi East 19.6 mph 26.5 mph N/A   Overcast
3:16 AM 44.6 °F 38.1 °F 37.4 °F 76% 28.75 in 10.0 mi East 13.8 mph - N/A   Overcast
3:36 AM 42.8 °F 37.0 °F 39.2 °F 87% 28.74 in 10.0 mi East 10.4 mph - N/A   Overcast
3:56 AM 44.6 °F 40.2 °F 39.2 °F 81% 28.73 in 10.0 mi East 8.1 mph - N/A   Overcast
4:16 AM 44.6 °F 39.7 °F 39.2 °F 81% 28.73 in 5.0 mi East 9.2 mph - N/A   Overcast
4:36 AM 42.8 °F 37.0 °F 39.2 °F 87% 28.74 in 3.0 mi ESE 10.4 mph - N/A   Overcast
4:56 AM 44.6 °F 38.8 °F 39.2 °F 81% 28.74 in 2.0 mi East 11.5 mph - N/A   Overcast
5:16 AM 44.6 °F 38.4 °F 39.2 °F 81% 28.73 in 2.0 mi East 12.7 mph - N/A   Overcast
5:36 AM 44.6 °F 38.1 °F 39.2 °F 81% 28.73 in 1.8 mi East 13.8 mph - N/A   Overcast
5:56 AM 44.6 °F 38.1 °F 39.2 °F 81% 28.73 in 2.0 mi ENE 13.8 mph - N/A   Overcast
6:16 AM 44.6 °F 38.4 °F 39.2 °F 81% 28.72 in 2.5 mi East 12.7 mph - N/A   Overcast
6:36 AM 44.6 °F 39.2 °F 39.2 °F 81% 28.72 in 1.8 mi East 10.4 mph - N/A   Overcast
6:56 AM 44.6 °F 39.2 °F 39.2 °F 81% 28.72 in 2.0 mi East 10.4 mph - N/A   Overcast
7:16 AM 44.6 °F 37.4 °F 41.0 °F 87% 28.71 in 3.0 mi SE 16.1 mph - N/A   Overcast
7:36 AM 44.6 °F 36.6 °F 41.0 °F 87% 28.70 in 2.5 mi SE 19.6 mph 28.8 mph N/A   Overcast
7:56 AM 44.6 °F 37.2 °F 42.8 °F 93% 28.71 in 4.0 mi SSE 17.3 mph 23.0 mph N/A   Overcast
8:16 AM 44.6 °F 39.7 °F 41.0 °F 87% 28.71 in 8.0 mi SSE 9.2 mph - N/A   Overcast
8:36 AM 44.6 °F 39.7 °F 42.8 °F 93% 28.71 in - SSE 9.2 mph - N/A   Unknown
8:56 AM 44.6 °F 39.2 °F 41.0 °F 87% 28.73 in 5.0 mi SE 10.4 mph - N/A   Overcast
9:16 AM 44.6 °F 39.2 °F 41.0 °F 87% 28.73 in 3.0 mi SSE 10.4 mph - N/A   Overcast
9:36 AM 44.6 °F 39.2 °F 41.0 °F 87% 28.73 in 3.0 mi SE 10.4 mph - N/A   Overcast
9:56 AM 44.6 °F 38.8 °F 39.2 °F 81% 28.74 in 3.0 mi SSE 11.5 mph 18.4 mph N/A   Overcast
10:16 AM 44.6 °F 37.8 °F 39.2 °F 81% 28.75 in 5.0 mi South 15.0 mph 19.6 mph N/A   Overcast
10:36 AM 44.6 °F 37.2 °F 39.2 °F 81% 28.76 in 5.0 mi South 17.3 mph 23.0 mph N/A   Overcast
10:56 AM 44.6 °F 37.8 °F 39.2 °F 81% 28.77 in 5.0 mi South 15.0 mph 23.0 mph N/A   Overcast
11:16 AM 44.6 °F 37.2 °F 39.2 °F 81% 28.78 in 7.0 mi SSE 17.3 mph 26.5 mph N/A   Overcast
11:36 AM 44.6 °F 36.9 °F 39.2 °F 81% 28.79 in 10.0 mi South 18.4 mph 24.2 mph N/A   Overcast
11:56 AM 44.6 °F 37.2 °F 39.2 °F 81% 28.81 in 5.0 mi South 17.3 mph - N/A   Overcast
12:16 PM 44.6 °F 37.4 °F 39.2 °F 81% 28.82 in 9.0 mi South 16.1 mph 19.6 mph N/A   Overcast
12:36 PM 44.6 °F 37.4 °F 39.2 °F 81% 28.82 in 10.0 mi South 16.1 mph 20.7 mph N/A   Overcast
12:56 PM 44.6 °F 38.4 °F 39.2 °F 81% 28.83 in 5.0 mi South 12.7 mph 20.7 mph N/A   Overcast
1:16 PM 44.6 °F 37.4 °F 39.2 °F 81% 28.83 in 4.0 mi South 16.1 mph 23.0 mph N/A   Overcast
1:36 PM 44.6 °F 37.4 °F 39.2 °F 81% 28.83 in 3.0 mi SSE 16.1 mph 24.2 mph N/A   Overcast
1:56 PM 44.6 °F 37.4 °F 39.2 °F 81% 28.83 in 5.0 mi South 16.1 mph 28.8 mph N/A   Overcast
2:16 PM 44.6 °F 37.8 °F 39.2 °F 81% 28.84 in 5.0 mi South 15.0 mph 26.5 mph N/A   Overcast
2:36 PM 44.6 °F 38.8 °F 39.2 °F 81% 28.84 in 3.0 mi SSE 11.5 mph 18.4 mph N/A   Overcast
2:56 PM 44.6 °F 38.4 °F 39.2 °F 81% 28.84 in 3.0 mi SSE 12.7 mph - N/A   Overcast
3:16 PM 42.8 °F 37.0 °F 39.2 °F 87% 28.85 in 3.0 mi SSE 10.4 mph - N/A   Overcast
3:36 PM 42.8 °F 37.0 °F 39.2 °F 87% 28.85 in 4.0 mi SSE 10.4 mph 16.1 mph N/A   Overcast
3:56 PM 42.8 °F 36.2 °F 39.2 °F 87% 28.86 in 4.0 mi SSE 12.7 mph 21.9 mph N/A   Overcast
4:16 PM 42.8 °F 36.6 °F 37.4 °F 81% 28.87 in 5.0 mi SSE 11.5 mph 19.6 mph N/A   Overcast
4:36 PM 42.8 °F 36.2 °F 37.4 °F 81% 28.88 in 7.0 mi South 12.7 mph 19.6 mph N/A   Overcast
4:56 PM 42.8 °F 36.2 °F 37.4 °F 81% 28.88 in 4.0 mi SSE 12.7 mph - N/A   Overcast
5:16 PM 42.8 °F 37.5 °F 37.4 °F 81% 28.88 in 6.0 mi SE 9.2 mph - N/A   Overcast
5:36 PM 42.8 °F 37.5 °F 37.4 °F 81% 28.90 in 8.0 mi SE 9.2 mph - N/A   Overcast
5:56 PM 42.8 °F 37.5 °F 37.4 °F 81% 28.91 in 10.0 mi SSE 9.2 mph - N/A   Overcast
6:16 PM 42.8 °F 37.0 °F 37.4 °F 81% 28.92 in 10.0 mi SE 10.4 mph - N/A   Overcast
6:36 PM 42.8 °F 38.0 °F 37.4 °F 81% 28.93 in 4.0 mi ESE 8.1 mph - N/A   Overcast
6:56 PM 42.8 °F 36.6 °F 37.4 °F 81% 28.94 in 6.0 mi SSE 11.5 mph - N/A   Overcast
7:16 PM 42.8 °F 37.5 °F 37.4 °F 81% 28.94 in 5.0 mi ESE 9.2 mph - N/A   Overcast
7:36 PM 42.8 °F 39.3 °F 37.4 °F 81% 28.93 in 4.0 mi SE 5.8 mph - N/A   Overcast
7:56 PM 41.0 °F 35.2 °F 37.4 °F 87% 28.93 in 7.0 mi SSE 9.2 mph - N/A   Overcast
8:16 PM 42.8 °F 37.5 °F 37.4 °F 81% 28.95 in 5.0 mi SE 9.2 mph - N/A   Overcast
8:36 PM 41.0 °F 36.4 °F 37.4 °F 87% 28.96 in 9.0 mi SSE 6.9 mph - N/A   Overcast
8:56 PM 42.8 °F - 37.4 °F 81% 28.96 in 5.0 mi Calm Calm - N/A   Overcast
9:16 PM 42.8 °F 41.1 °F 37.4 °F 81% 28.98 in 4.0 mi ESE 3.5 mph - N/A   Overcast
9:36 PM 41.0 °F 39.0 °F 37.4 °F 87% 28.98 in 3.0 mi SSE 3.5 mph - N/A   Overcast
9:56 PM 41.0 °F 35.2 °F 37.4 °F 87% 29.00 in 8.0 mi SE 9.2 mph - N/A   Overcast
10:16 PM 41.0 °F 35.8 °F 37.4 °F 87% 29.00 in 5.0 mi ESE 8.1 mph - N/A   Overcast
10:36 PM 41.0 °F 36.4 °F 37.4 °F 87% 29.00 in 5.0 mi ESE 6.9 mph - N/A   Overcast
10:56 PM 41.0 °F 37.1 °F 37.4 °F 87% 29.00 in 6.0 mi ESE 5.8 mph - N/A   Overcast
11:16 PM 41.0 °F 37.1 °F 37.4 °F 87% 29.01 in 5.0 mi ESE 5.8 mph - N/A   Overcast
11:36 PM 41.0 °F 36.4 °F 37.4 °F 87% 29.01 in 4.0 mi SE 6.9 mph - N/A   Overcast
11:56 PM 41.0 °F 36.4 °F 37.4 °F 87% 29.02 in 5.0 mi SE 6.9 mph - N/A   Overcast